Flag for Netherlands Weather past 2 weeks in Utrecht, Netherlands

Now
52 °F

Passing clouds.


Feels Like: 46 °F
Forecast: 45 / 64 °F
Wind: 21 mph from West

Location: Amsterdam Schiphol Airport

Current Time: May 7, 2015 at 5:40:54 AM

Latest Report: May 7, 2015 at 4:55 AM


Visibility: N/A

Pressure: 29.86 "Hg

Humidity: 82%

Dew point: 46 °F

Location of UtrechtLocation

Historic Weather in Utrecht — Graph

°F

Utrecht temperature yesterday

Maximum temperature yesterday: 59 °F (at 12:25 PM)
Minimum temperature yesterday: 50 °F (at 4:25 AM)
Average temperature yesterday: 54 °F

Past Weeks' High & Low Weather Summary

 TemperatureHumidityPressure
High72 °F (May 5, 12:25 PM)100% (Apr 22, 5:55 AM)30.48 "Hg (Apr 22, 5:55 AM)
Low34 °F (Apr 28, 3:25 AM)33% (May 2, 3:55 PM)29.30 "Hg (May 5, 4:25 AM)
Average51 °F74%29.83 "Hg
* Reported Apr 22 4:25 AM — May 7 4:25 AM, Utrecht, Weather by CustomWeather, © 2015

Note: Actual official high and low records may vary slightly from our data, if they occured in-between our weather recording intervals... More about our weather records

Advertising

Utrecht weather history for previous 24 hours

 ConditionsComfort  
Time TempWeatherWind HumidityBarometerVisibility
4:25 AM
Thu, May 7
52 °FPassing clouds.22 mph82%29.86 "HgN/A
3:55 AM52 °FPassing clouds.23 mph82%29.86 "HgN/A
3:25 AM52 °FSprinkles. Passing clouds.25 mph82%29.83 "HgN/A
2:55 AM52 °FPassing clouds.25 mph82%29.83 "HgN/A
2:25 AM54 °FPassing clouds.26 mph77%29.83 "HgN/A
1:55 AM52 °FPassing clouds.26 mph82%29.83 "HgN/A
1:25 AM52 °FPassing clouds.23 mph77%29.83 "HgN/A
12:55 AM52 °FPassing clouds.26 mph77%29.83 "HgN/A
12:25 AM52 °FPassing clouds.24 mph77%29.80 "HgN/A
11:55 PM
Wed, May 6
52 °FPassing clouds.26 mph77%29.80 "HgN/A
10:55 PM52 °FPassing clouds.28 mph77%29.80 "HgN/A
10:25 PM54 °FPassing clouds.28 mph72%29.77 "HgN/A
9:55 PM54 °FScattered clouds.28 mph72%29.77 "HgN/A
9:25 PM54 °FPassing clouds.31 mph72%29.77 "HgN/A
8:55 PM54 °FPassing clouds.29 mph67%29.77 "HgN/A
8:25 PM55 °FPassing clouds.30 mph63%29.77 "HgN/A
7:55 PM55 °FPassing clouds.32 mph63%29.74 "HgN/A
7:25 PM55 °FPassing clouds.32 mph59%29.74 "HgN/A
6:55 PM57 °FPassing clouds.36 mph59%29.74 "HgN/A
6:25 PM57 °FPassing clouds.32 mph59%29.74 "HgN/A
5:55 PM57 °FScattered clouds.31 mph59%29.74 "HgN/A
5:25 PM57 °FScattered clouds.37 mph59%29.74 "HgN/A
4:55 PM57 °FScattered clouds.32 mph59%29.74 "HgN/A
4:25 PM57 °FScattered clouds.25 mph67%29.74 "HgN/A
3:55 PM50 °FSprinkles. Scattered clouds.26 mph82%29.74 "HgN/A
3:25 PM57 °FBroken clouds.23 mph67%29.71 "HgN/A
2:55 PM57 °FPassing clouds.21 mph72%29.74 "HgN/A
2:25 PM54 °FScattered showers. Scattered clouds.17 mph82%29.74 "HgN/A
1:55 PM52 °FPartly sunny.25 mph82%29.74 "HgN/A
1:25 PM50 °FSprinkles. Partly sunny.24 mph76%29.74 "HgN/A
12:55 PM59 °FSprinkles. Partly sunny.22 mph59%29.74 "HgN/A
12:25 PM59 °FScattered showers. Partly sunny.23 mph59%29.74 "HgN/A
11:55 AM57 °FScattered showers. Passing clouds.21 mph63%29.74 "HgN/A
11:25 AM55 °FPartly sunny.23 mph67%29.74 "HgN/A
10:55 AM55 °FScattered showers. Broken clouds.20 mph67%29.74 "HgN/A
10:25 AM54 °FBroken clouds.21 mph72%29.74 "HgN/A
9:55 AM54 °FBroken clouds.18 mph72%29.74 "HgN/A
9:25 AM54 °FPartly sunny.18 mph72%29.74 "HgN/A
8:55 AM54 °FBroken clouds.18 mph72%29.74 "HgN/A
8:25 AM52 °FPartly sunny.16 mph77%29.74 "HgN/A
7:55 AM52 °FPartly sunny.14 mph77%29.74 "HgN/A
7:25 AM50 °FScattered clouds.12 mph82%29.74 "HgN/A
6:55 AM50 °FPassing clouds.13 mph82%29.74 "HgN/A
6:25 AM50 °FPassing clouds.12 mph76%29.71 "HgN/A
5:55 AM50 °FClear.10 mph76%29.71 "Hg10 mi
Weather by CustomWeather, © 2015

See weather overviewHow to use our weather pages